This is the latest recevied weather packets stored in our database for station/object 4S6DRJ-13. If no packets are shown the sender has not sent any weather packets the latest 10 day(s).
| Time | Temp. | Humidity | Pressure | Rain* | Wind** | Luminosity | Snow |
|---|---|---|---|---|---|---|---|
| 1787960098 | 27.78° C | 85% | 1008.8 hPa | 0 mm | 1.34 m/s, 283° | 0 W/m² | - |
| 1787960037 | 27.78° C | 85% | 1008.8 hPa | 0 mm | 0 m/s | 0 W/m² | - |
| 1787959977 | 27.78° C | 85% | 1009 hPa | 0 mm | 0.45 m/s, 197° | 0 W/m² | - |
| 1787959915 | 27.78° C | 85% | 1008.9 hPa | 0 mm | 0.89 m/s, 332° | 0 W/m² | - |
| 1787959854 | 27.78° C | 85% | 1009 hPa | 0 mm | 1.34 m/s, 305° | 0 W/m² | - |
| 1787959793 | 27.78° C | 85% | 1008.8 hPa | 0 mm | 1.34 m/s, 209° | 0 W/m² | - |
| 1787959732 | 27.78° C | 85% | 1008.9 hPa | 0 mm | 1.34 m/s, 167° | 0 W/m² | - |
| 1787959671 | 27.78° C | 85% | 1008.7 hPa | 0 mm | 1.34 m/s, 220° | 0 W/m² | - |
| 1787959610 | 27.78° C | 85% | 1009 hPa | 0 mm | 0.45 m/s, 225° | 0 W/m² | - |
| 1787959549 | 27.78° C | 85% | 1008.9 hPa | 0 mm | 0.89 m/s, 235° | 0 W/m² | - |
| 1787959488 | 27.78° C | 85% | 1008.9 hPa | 0 mm | 1.34 m/s, 229° | 0 W/m² | - |
| 1787959427 | 27.78° C | 85% | 1009 hPa | 0 mm | 0.89 m/s, 255° | 0 W/m² | - |
| 1787959372 | 27.78° C | 85% | 1008.7 hPa | 0 mm | 0.89 m/s, 213° | 0 W/m² | - |
| 1787959305 | 27.78° C | 85% | 1008.7 hPa | 0 mm | 0.89 m/s, 250° | 0 W/m² | - |
| 1787959244 | 27.78° C | 85% | 1008.9 hPa | 0 mm | 1.34 m/s, 294° | 0 W/m² | - |
| 1787959183 | 27.78° C | 85% | 1008.9 hPa | 0 mm | 0.89 m/s, 304° | 0 W/m² | - |
| 1787959122 | 27.78° C | 85% | 1009 hPa | 0 mm | 1.34 m/s, 216° | 0 W/m² | - |
| 1787959061 | 27.78° C | 85% | 1008.9 hPa | 0 mm | 0.89 m/s, 249° | 0 W/m² | - |
| 1787959000 | 27.78° C | 85% | 1009 hPa | 0 mm | 0 m/s | 0 W/m² | - |
| 1787958940 | 27.78° C | 85% | 1009.1 hPa | 0 mm | 0.45 m/s, 209° | 0 W/m² | - |
| 1787958878 | 27.78° C | 85% | 1009 hPa | 0 mm | 0.89 m/s, 261° | 0 W/m² | - |
| 1787958817 | 27.78° C | 85% | 1008.9 hPa | 0 mm | 0.89 m/s, 207° | 0 W/m² | - |
| 1787958756 | 27.78° C | 85% | 1008.9 hPa | 0 mm | 1.34 m/s, 187° | 0 W/m² | - |
| 1787958695 | 27.78° C | 85% | 1009 hPa | 0 mm | 0.89 m/s, 239° | 0 W/m² | - |
| 1787958634 | 27.78° C | 85% | 1008.9 hPa | 0 mm | 0.89 m/s, 215° | 0 W/m² | - |
* Rain latest hour (hover to see other rain measurements)
** Current wind speed in m/s (hover to see current wind gust speed)